User: anonymous   Login
Location: Unspecified
(0.0000°N, 0.0000°E)
Time: 02:59:24
(UTC+00:00)
Language:

Gonets-D1 - Orbit

View from above orbital plane
View from above orbital plane
View from above satellite
View from above satellite

Ground track
Ground track

The orbit data is extracted from the following two-line orbital elements,

1 24725U 97006A   17232.24785875 -.00000001 +00000-0 -63304-4 0  9996
2 24725 082.6117 162.0920 0008369 207.1295 152.9358 12.60666321943731
Epoch (UTC): 20 August 2017 05:56:54
Eccentricity: 0.0008369
inclination: 82.6117°
perigee height: 1413 km
apogee height: 1427 km
right ascension of ascending node: 162.0920°
argument of perigee: 207.1295°
revolutions per day: 12.60666321
mean anomaly at epoch: 152.9358°
orbit number at epoch: 94373

The dashed part of the orbit path shows where the satellite is in the earth's shadow,  

DLR